Skip Page Navigation
NASA JPL Caltech
NASA Logo - Jet Propulsion Laboratory + View the NASA Portal
+ Center for Near-Earth Object Studies
JPL Home Earth Solar System Stars & Galaxies Technology
JPL Solar System Dynamics
BODIES ORBITS EPHEMERIDES TOOLS PHYSICAL DATA DISCOVERY FAQ SITE MAP
JPL Small-Body Database Browser
Search: [ help ]  
(2018 FX1)
Classification: Amor [NEO]          SPK-ID: 3802010
Ephemeris | Orbit Diagram | Orbital Elements | Mission Design | Physical Parameters | Close-Approach Data ]

[ show orbit diagram ]
Orbital Elements at Epoch 2459000.5 (2020-May-31.0) TDB
Reference: JPL 11 (heliocentric ecliptic J2000)
 Element Value Uncertainty (1-sigma)   Units 
e .6432558237094139 0.00024253  
a 3.252048811251908 0.0023248 au
q 1.160149474426841 4.0654e-05 au
i 22.96874490894862 0.0047775 deg
node 3.192755267408115 0.00071328 deg
peri 167.5854671622276 0.00051688 deg
M 136.9802009852773 0.14699 deg
tp 2458185.440510039392
(2018-Mar-07.94051004)
0.00068589 TDB
period 2142.071732084521
5.86
2.297
0.006289
d
yr
n .1680615987820688 0.00018021 deg/d
Q 5.343948148076974 0.0038202 au
  Orbit Determination Parameters
   # obs. used (total)      76  
   data-arc span      34 days  
   first obs. used      2018-03-17  
   last obs. used      2018-04-20  
   planetary ephem.      DE431  
   SB-pert. ephem.      SB431-N16  
   condition code      6  
   norm. resid. RMS      .4693  
   source      ORB  
   producer      Otto Matic  
   solution date      2018-Apr-27 06:51:58  

Additional Information
 Earth MOID = .17135 au 
 Jupiter MOID = .200794 au 
 T_jup = 2.715 
[ show covariance matrix ]

Ephemeris | Orbit Diagram | Orbital Elements | Mission Design | Physical Parameters | Close-Approach Data ]

Physical Parameter Table
Parameter Symbol Value Units Sigma Reference Notes
absolute magnitude H 22.0   n/a MPO446985  

[ show close-approach data ]
Ephemeris | Orbit Diagram | Orbital Elements | Mission Design | Physical Parameters | Close-Approach Data ]
ABOUT SSD CREDITS/AWARDS PRIVACY/COPYRIGHT GLOSSARY LINKS
FirstGov 2020-Aug-04 20:17 UT
(server date/time)  
NASA Home Page
Site Manager:   Ryan S. Park
Webmaster  Alan B. Chamberlin